FENGYUN 1C DEB, 31181

Orbit data source: Space-Track

FENGYUN 1C DEB, 31181 is space debris in SSO originally from a launch on Mon, 10 May 1999 UTC launched from the Taiyaun Space Center, China (TSC). Fengyun 1C debris stems from the Chinese weather satellite Fengyun-1C, which was intentionally destroyed by a Chinese anti-satellite missile in 2007. This event dramatically increased the amount of space debris, with thousands of trackable fragments posing hazards to satellites and human spaceflight. The Fengyun 1C debris cloud has become a focal point in discussions about space sustainability and the need for international regulations to prevent the creation of new debris.

Loading next visibility...
Identifier
31181, 1999-025BJK
Orbit
SSO
Country
Flag of CNCN / PRC
Related business
Manufacturer
Unknown
Mission
Spacecraft
Bus & Motor
Unknown
Mass
Unknown
Launch date (UTC)
1999-05-10 (27 years ago)
Launch vehicle
Unknown
Launch site
Taiyaun Space Center, China (TSC)
Object type
Payload
Rocket body
Debris
Shape & HBR
Unknown shape, 0.1 m
Radar Cross Section
Small (<0.1 m²)

Expand to show TLE details & history
Last TLE update: 4 days ago

TLE from 4 days ago
0 FENGYUN 1C DEB
1 31181U 99025BJK 26172.59564022  .00000984  00000-0  55067-3 0  9997
2 31181  98.7558 205.9399 0045153 249.3394 263.0354 14.12508872984616
Epoch: 2026-06-21T14:17Z
TLE epoch observation values (Epoch: 2026-06-21T14:17:43.315Z)
Latitude
27.82418°
Longitude
-93.64628°
Altitude
858.305 km
Speed
7.424 km/s
True Right ascension
02h 02m 18s
True Declination
27° 41' 04"
Sunlit
Object was in daylight at epoch
Visualization orbit readout
Latitude
Unknown
Longitude
Unknown
Altitude
Unknown
Speed
Unknown
Apparent Right ascension
Unknown
Apparent Declination
Unknown
Sunlit
N/A
Visualization observer readout
Local Sidereal Time
00:12:27
Azimuth
Unknown
Elevation
Unknown
Doppler factor
Unknown
Orbital elements
Apogee altitude
880.598 km
Perigee altitude
815.342 km
Semi-major axis
7,226.107 km
Eccentricity
0.00452
Inclination
98.7558°
RAAN
205.9399°
Arg. of periapsis
249.3394°
True anomaly
262.52216°
Mean anomaly
263.0354°
Eccentric anomaly
262.77874°
Mean motion
3.53335 °/min
Orbital period
101.89 mins
BSTAR
0.00055067
Loading maneuver chart data...
Computing Atmospheric mass density...
Loading historical data...
Loading historical data...
Loading historical data...
Loading historical data...
Loading historical data...
Loading historical data...
Loading historical data...

Documentation

Showing up to 5 results
|